Weather History for Jacksonville, TX

Change the Weather History Date:

Wednesday, May 1, 2013

  Actual Average (KTYR) Record (KTYR)
Temperature  
Mean Temperature 70 °F 69 °F  
Max Temperature 80 °F 79 °F 100 °F (1902)
Min Temperature 60 °F 59 °F 38 °F (1903)
Degree Days  
Heating Degree Days 0 1  
Month to date heating degree days 1  
Since 1 July heating degree days 2263  
Cooling Degree Days 5 5  
Month to date cooling degree days 5  
Year to date cooling degree days 117  
Growing Degree Days 20 (Base 50)    
Moisture  
Dew Point 62 °F    
Average Humidity 80    
Maximum Humidity 100    
Minimum Humidity 45    
Precipitation  
Precipitation 0.00 in 0.15 in 4.03 in (1944)
Month to date precipitation 0.15  
Year to date precipitation 14.31  
Snow  
Snow 0.00 in - - ()
Month to date snowfall  
Since 1 July snowfall  
Snow Depth -    
Sea Level Pressure  
Sea Level Pressure 29.90 in    
Wind  
Wind Speed 5 mph (East)    
Max Wind Speed 9 mph    
Max Gust Speed -    
Visibility 8 miles    
Events Fog , Rain    
T = Trace of Precipitation, MM = Missing Value Source: NWS Daily Summary

Daily Weather History Graph

Daily Weather History Graph

Search for Another Location

Airport:

Trip Planner

Search our weather history database for the weather conditions in past years. The results will help you decide how hot, cold, wet, or windy it might be!

Date:

Astronomy

May. 01, 2013 Rise Set
Actual Time 6:34 AM CDT 8:01 PM CDT
Civil Twilight 6:08 AM CDT 8:27 PM CDT
Nautical Twilight 5:37 AM CDT 8:58 PM CDT
Astronomical Twilight 5:05 AM CDT 9:30 PM CDT
Moon 1:10 AM CDT (5/1) 12:14 PM CDT (5/1)
Length of Visible Light 14h 18m
Length of Day
13h 26m
Waning Gibbous, 59% of the Moon is Illuminated
May 1
Waning Gibbous
May 2
Last Quarter
May 9
New
May 17
First Quarter
May 24
Full

Hourly Weather History & Observations

Time (CDT) Temp. Heat Index Dew Point Humidity Pressure Visibility Wind Dir Wind Speed Gust Speed Precip Events Conditions
12:15 AM 64.9 °F - 62.6 °F 92% 29.87 in 10.0 mi SSE 5.8 mph - N/A   Clear
12:35 AM 64.9 °F - 62.6 °F 92% 29.86 in 10.0 mi SSE 8.1 mph - N/A   Clear
12:55 AM 64.6 °F - 62.6 °F 93% 29.86 in 10.0 mi SSE 6.9 mph - N/A   Clear
1:35 AM 64.0 °F - 62.6 °F 95% 29.86 in 10.0 mi SSE 4.6 mph - N/A   Clear
1:55 AM 63.7 °F - 62.6 °F 96% 29.86 in 10.0 mi South 4.6 mph - N/A   Clear
2:15 AM 63.3 °F - 62.6 °F 97% 29.86 in 10.0 mi SE 4.6 mph - N/A   Clear
2:35 AM 63.1 °F - 62.6 °F 98% 29.86 in 7.0 mi SSE 4.6 mph - N/A   Clear
2:55 AM 63.9 °F - 63.1 °F 97% 29.86 in 10.0 mi South 4.6 mph - N/A   Clear
3:15 AM 63.7 °F - 62.8 °F 97% 29.86 in 10.0 mi South 4.6 mph - N/A   Clear
3:35 AM 63.5 °F - 62.8 °F 97% 29.86 in 7.0 mi South 4.6 mph - N/A   Clear
3:55 AM 63.0 °F - 62.6 °F 99% 29.86 in 7.0 mi South 4.6 mph - N/A   Scattered Clouds
4:15 AM 62.6 °F - 62.1 °F 98% 29.86 in 5.0 mi SSE 4.6 mph - N/A   Scattered Clouds
4:35 AM 62.6 °F - 62.2 °F 99% 29.86 in 4.0 mi SSE 3.5 mph - N/A   Clear
4:55 AM 62.1 °F - 61.9 °F 99% 29.86 in 2.5 mi Calm Calm - N/A   Clear
5:15 AM 61.9 °F - 61.9 °F 100% 29.86 in 1.5 mi Calm Calm - N/A   Mist
5:35 AM 61.7 °F - 61.7 °F 100% 29.86 in 1.2 mi ENE 3.5 mph - N/A   Mist
5:55 AM 61.5 °F - 61.5 °F 100% 29.86 in 0.2 mi East 4.6 mph - N/A Fog Fog
6:15 AM 60.1 °F - 60.1 °F 100% 29.86 in 0.2 mi East 5.8 mph - N/A Fog Fog
6:35 AM 61.2 °F - 61.2 °F 100% 29.87 in 0.2 mi East 4.6 mph - N/A   Drizzle
6:55 AM 61.9 °F - 61.9 °F 100% 29.88 in 0.2 mi ESE 3.5 mph - N/A   Drizzle
7:15 AM 61.9 °F - 61.9 °F 100% 29.88 in 0.2 mi East 3.5 mph - N/A   Drizzle
7:35 AM 62.8 °F - 62.8 °F 100% 29.88 in 0.2 mi East 6.9 mph - N/A Rain Light Rain
7:55 AM 63.0 °F - 63.0 °F 100% 29.89 in 0.2 mi East 5.8 mph - N/A Fog Fog
8:15 AM 63.0 °F - 63.0 °F 100% 29.90 in 0.2 mi East 4.6 mph - N/A Fog Fog
8:35 AM 63.5 °F - 63.5 °F 100% 29.90 in 0.2 mi ESE 5.8 mph - N/A Fog Fog
8:55 AM 63.1 °F - 63.1 °F 100% 29.90 in 1.0 mi East 4.6 mph - N/A   Overcast
9:15 AM 64.0 °F - 64.0 °F 100% 29.91 in 4.0 mi Calm Calm - N/A   Overcast
9:35 AM 64.0 °F - 64.0 °F 100% 29.91 in 5.0 mi SSE 3.5 mph - N/A   Overcast
9:55 AM 66.4 °F - 66.4 °F 100% 29.92 in 10.0 mi Calm Calm - N/A   Overcast
10:15 AM 67.6 °F - 64.6 °F 90% 29.93 in 7.0 mi Calm Calm - N/A   Overcast
10:35 AM 69.3 °F - 64.6 °F 85% 29.93 in 7.0 mi Calm Calm - N/A   Overcast
10:55 AM 70.0 °F - 64.2 °F 82% 29.93 in 10.0 mi SSE 5.8 mph - N/A   Overcast
11:15 AM 70.5 °F - 64.0 °F 80% 29.94 in 10.0 mi Calm Calm - N/A   Mostly Cloudy
11:35 AM 72.9 °F - 64.6 °F 75% 29.94 in 10.0 mi ESE 3.5 mph - N/A   Mostly Cloudy
11:55 AM 73.8 °F - 64.0 °F 72% 29.94 in 10.0 mi South 4.6 mph - N/A   Scattered Clouds
12:15 PM 74.5 °F - 63.3 °F 68% 29.93 in 10.0 mi South 5.8 mph - N/A   Scattered Clouds
12:35 PM 75.0 °F - 63.1 °F 66% 29.93 in 10.0 mi South 8.1 mph - N/A   Mostly Cloudy
12:55 PM 76.3 °F - 62.4 °F 62% 29.92 in 10.0 mi SSE 4.6 mph - N/A   Mostly Cloudy
1:15 PM 75.4 °F - 61.5 °F 62% 29.92 in 10.0 mi Calm Calm - N/A   Overcast
1:35 PM 75.9 °F - 59.5 °F 57% 29.91 in 10.0 mi NNE 3.5 mph - N/A   Overcast
1:55 PM 76.1 °F - 60.4 °F 58% 29.91 in 10.0 mi SSE 4.6 mph - N/A   Overcast
2:15 PM 77.5 °F - 59.7 °F 54% 29.91 in 10.0 mi SSE 3.5 mph - N/A   Scattered Clouds
2:35 PM 78.3 °F - 58.5 °F 50% 29.91 in 10.0 mi West 4.6 mph - N/A   Scattered Clouds
2:55 PM 79.0 °F - 58.3 °F 49% 29.91 in 10.0 mi North 3.5 mph - N/A   Scattered Clouds
3:15 PM 79.9 °F - 57.9 °F 47% 29.91 in 10.0 mi Calm Calm - N/A   Scattered Clouds
3:35 PM 80.6 °F 80.8 °F 57.4 °F 45% 29.90 in 10.0 mi Calm Calm - N/A   Scattered Clouds
3:55 PM 79.7 °F - 57.4 °F 46% 29.90 in 10.0 mi Calm Calm - N/A   Scattered Clouds
4:15 PM 79.2 °F - 59.9 °F 52% 29.89 in 10.0 mi NE 9.2 mph - N/A   Mostly Cloudy
4:35 PM 78.3 °F - 62.2 °F 58% 29.88 in 10.0 mi NNE 8.1 mph - N/A   Scattered Clouds
4:55 PM 78.1 °F - 62.1 °F 58% 29.88 in 10.0 mi Calm Calm - N/A   Scattered Clouds
5:15 PM 79.0 °F - 61.5 °F 55% 29.88 in 10.0 mi NNE 8.1 mph - N/A   Scattered Clouds
5:35 PM 79.7 °F - 60.6 °F 52% 29.88 in 10.0 mi North 9.2 mph - N/A   Scattered Clouds
5:55 PM 78.6 °F - 60.1 °F 53% 29.88 in 10.0 mi North 4.6 mph - N/A   Scattered Clouds
6:15 PM 79.0 °F - 59.5 °F 51% 29.89 in 10.0 mi NNE 3.5 mph - N/A   Clear
6:35 PM 78.8 °F - 59.2 °F 51% 29.89 in 10.0 mi NNE 4.6 mph - N/A   Clear
6:55 PM 76.5 °F - 61.9 °F 61% 29.90 in 10.0 mi ENE 8.1 mph - N/A   Mostly Cloudy
7:15 PM 75.0 °F - 62.6 °F 65% 29.91 in 10.0 mi NE 8.1 mph - N/A   Overcast
7:35 PM 75.0 °F - 62.1 °F 64% 29.91 in 10.0 mi NE 5.8 mph - N/A   Mostly Cloudy
7:55 PM 73.2 °F - 61.2 °F 66% 29.91 in 10.0 mi NE 6.9 mph - N/A   Scattered Clouds
8:15 PM 71.6 °F - 60.8 °F 69% 29.91 in 10.0 mi NE 4.6 mph - N/A   Clear
8:35 PM 70.9 °F - 60.8 °F 70% 29.93 in 10.0 mi NNE 3.5 mph - N/A   Clear
8:55 PM 70.5 °F - 61.0 °F 72% 29.93 in 10.0 mi NE 4.6 mph - N/A   Clear
9:15 PM 69.8 °F - 61.3 °F 74% 29.94 in 10.0 mi NE 4.6 mph - N/A   Clear
9:35 PM 68.9 °F - 61.7 °F 78% 29.96 in 10.0 mi NNE 6.9 mph - N/A   Clear
9:55 PM 68.0 °F - 62.1 °F 81% 29.96 in 10.0 mi NNE 6.9 mph - N/A   Clear
10:15 PM 67.1 °F - 62.2 °F 84% 29.95 in 10.0 mi NE 8.1 mph - N/A   Clear
10:35 PM 66.4 °F - 62.6 °F 88% 29.96 in 10.0 mi NE 6.9 mph - N/A   Clear
10:55 PM 65.7 °F - 62.6 °F 90% 29.96 in 10.0 mi NE 6.9 mph - N/A   Clear
11:15 PM 65.3 °F - 62.6 °F 91% 29.96 in 10.0 mi NE 6.9 mph - N/A   Clear
11:35 PM 64.9 °F - 62.6 °F 92% 29.96 in 10.0 mi NE 6.9 mph - N/A   Scattered Clouds
11:55 PM 65.3 °F - 63.0 °F 92% 29.97 in 10.0 mi NNE 5.8 mph - N/A   Mostly Cloudy